Date String (YYYY-MM-DD hh:mm:ss) UTC,Instrument flags,Ambient pressure (hPa),Sample flow (lpm),Bypass flow (lpm),Sample temperature (°C),Ambient temperature (°C),ASC tube jacket temperature (°C),LED temperature (°C),Box temperature (°C),Sample RH (%),Span deviation,Mass concentration (μg/m³),Mass concentration (μg/m³),Mass concentration (μg/m³)
DateTimeUTC,F1_M11,P_M11,Q1_M11,Q2_M11,T1_M11,T2_M11,T3_M11,T4_M11,T5_M11,U1_M11,ZSPAN_M11,X0_M11,X2_M11,X1_M11
2022-07-24 17:00:00,,0831.2,5.00,0.00,31.1,27.7,00.0,39.6,32.1,33.9,0000.2,0015.74,0010.99,0010.01
2022-07-24 17:01:00,,0831.3,4.99,0.00,31.0,27.8,00.0,39.6,32.1,34.2,0000.1,0015.63,0010.91,0009.94
2022-07-24 17:02:00,,0831.2,5.00,0.00,31.0,27.9,00.0,39.6,32.1,34.6,0000.1,0015.56,0010.87,0009.94
2022-07-24 17:03:00,,0831.2,5.00,0.00,30.9,28.1,00.0,39.6,32.1,35.4,-000.3,0015.45,0010.88,0009.96
2022-07-24 17:04:00,,0831.2,5.01,0.00,31.1,28.3,00.0,39.6,32.3,35.0,-000.5,0015.31,0010.83,0009.89
2022-07-24 17:05:00,,0831.4,5.00,0.00,31.4,28.4,00.0,39.5,32.4,33.8,-001.1,0015.18,0010.74,0009.83
2022-07-24 17:06:00,,0831.4,5.00,0.00,31.5,28.6,00.0,39.6,32.4,33.3,-001.4,0015.15,0010.68,0009.81
2022-07-24 17:07:00,,0831.5,5.00,0.00,31.6,28.7,00.0,39.6,32.4,33.3,-001.6,0014.80,0010.57,0009.75
2022-07-24 17:08:00,,0831.4,4.99,0.00,31.6,28.8,00.0,39.6,32.5,33.4,-001.6,0014.67,0010.52,0009.72
2022-07-24 17:09:00,,0831.5,5.00,0.00,31.6,28.9,00.0,39.7,32.5,33.3,-001.8,0014.63,0010.51,0009.72
2022-07-24 17:10:00,,0831.4,5.01,0.00,31.6,29.0,00.0,39.7,32.5,33.4,-001.6,0013.95,0010.52,0009.76
2022-07-24 17:11:00,,0831.5,5.01,0.00,31.6,28.6,00.0,39.7,32.5,33.7,-002.0,0013.77,0010.50,0009.81
2022-07-24 17:12:00,,0831.5,4.99,0.00,31.6,27.9,00.0,39.6,32.4,33.7,-002.2,0013.71,0010.55,0009.88
2022-07-24 17:13:00,,0831.5,5.01,0.00,31.5,27.6,00.0,39.6,32.3,33.8,-002.0,0014.15,0010.54,0009.88
2022-07-24 17:14:00,,0831.5,4.99,0.00,31.4,27.6,00.0,39.6,32.1,34.3,-001.7,0014.15,0010.49,0009.86
2022-07-24 17:15:00,,0831.5,5.01,0.00,31.3,27.7,00.0,39.6,32.1,34.0,-001.7,0014.22,0010.58,0009.96
2022-07-24 17:16:00,,0831.5,5.00,0.00,31.2,27.9,00.0,39.6,32.1,34.2,-001.4,0014.23,0010.64,0010.05
2022-07-24 17:17:00,,0831.5,4.99,0.00,31.1,28.0,00.0,39.6,32.1,34.4,-001.2,0014.37,0010.76,0010.13
2022-07-24 17:18:00,,0831.5,5.00,0.00,31.1,28.2,00.0,39.6,32.1,34.3,-000.9,0014.62,0010.86,0010.19
2022-07-24 17:19:00,,0831.5,5.00,0.00,31.0,28.4,00.0,39.6,32.1,34.4,-001.3,0014.67,0010.89,0010.23
2022-07-24 17:20:00,,0831.6,5.00,0.00,31.0,28.5,00.0,39.6,32.2,34.1,-001.3,0014.75,0010.92,0010.25
2022-07-24 17:21:00,,0831.5,4.99,0.00,31.0,28.7,00.0,39.6,32.2,34.4,-001.5,0014.83,0010.96,0010.28
2022-07-24 17:22:00,,0831.5,5.00,0.00,31.0,28.8,00.0,39.6,32.3,34.5,-001.2,0014.89,0011.08,0010.36
2022-07-24 17:23:00,,0831.5,5.00,0.00,31.0,28.9,00.0,39.6,32.3,34.7,-001.4,0014.95,0011.13,0010.42
2022-07-24 17:24:00,,0831.5,5.01,0.00,31.0,28.9,00.0,39.6,32.4,34.8,-001.7,0014.52,0011.24,0010.54
2022-07-24 17:25:00,,0831.5,4.99,0.00,31.1,28.4,00.0,39.5,32.4,34.6,-001.6,0014.83,0011.42,0010.66
2022-07-24 17:26:00,,0831.6,5.01,0.00,31.0,27.8,00.0,39.4,32.2,34.7,-001.6,0015.53,0011.49,0010.71
2022-07-24 17:27:00,,0831.5,5.00,0.00,31.0,27.6,00.0,39.4,32.1,35.0,-001.6,0015.67,0011.56,0010.75
2022-07-24 17:28:00,,0831.5,4.99,0.00,30.9,27.6,00.0,39.4,32.0,34.5,-001.5,0015.57,0011.54,0010.78
2022-07-24 17:29:00,,0831.5,5.01,0.00,30.9,27.7,00.0,39.4,32.0,34.2,-001.6,0015.62,0011.59,0010.84
2022-07-24 17:30:00,,0831.5,4.98,0.00,30.9,27.9,00.0,39.4,32.0,34.5,-001.3,0015.89,0011.70,0010.92
2022-07-24 17:31:00,,0831.5,5.00,0.00,30.9,28.0,00.0,39.4,32.0,34.8,-001.2,0015.86,0011.72,0010.95
2022-07-24 17:32:00,,0831.4,5.00,0.00,30.9,28.2,00.0,39.4,32.1,34.5,-001.0,0015.78,0011.72,0010.97
2022-07-24 17:33:00,,0831.4,5.00,0.00,31.0,28.4,00.0,39.4,32.1,34.3,-001.0,0015.71,0011.64,0010.90
2022-07-24 17:34:00,,0831.4,4.99,0.00,31.0,28.5,00.0,39.4,32.2,34.4,-000.7,0015.65,0011.56,0010.82
2022-07-24 17:35:00,,0831.4,4.99,0.00,31.0,28.7,00.0,39.4,32.2,34.6,-000.5,0016.03,0011.50,0010.74
2022-07-24 17:36:00,,0831.4,5.02,0.00,31.0,28.8,00.0,39.4,32.2,34.7,-000.9,0016.36,0011.37,0010.62
2022-07-24 17:37:00,,0831.4,5.01,0.00,31.1,28.9,00.0,39.4,32.3,34.4,-000.9,0015.60,0011.30,0010.56
2022-07-24 17:38:00,,0831.3,5.00,0.00,31.1,28.6,00.0,39.4,32.3,34.0,-001.2,0015.62,0011.30,0010.58
2022-07-24 17:39:00,,0831.3,4.99,0.00,31.1,27.9,00.0,39.3,32.2,34.6,-001.7,0015.57,0011.28,0010.56
2022-07-24 17:40:00,,0831.3,5.01,0.00,31.0,27.6,00.0,39.3,32.1,34.7,-001.8,0015.74,0011.13,0010.45
2022-07-24 17:41:00,,0831.3,5.00,0.00,31.0,27.5,00.0,39.3,32.0,34.1,-001.7,0015.38,0010.94,0010.32
2022-07-24 17:42:00,,0831.4,5.00,0.00,30.9,27.6,00.0,39.3,32.0,33.9,-001.7,0015.47,0010.88,0010.26
2022-07-24 17:43:00,,0831.3,5.00,0.00,30.8,27.8,00.0,39.3,32.0,33.4,-001.8,0015.53,0010.77,0010.13
2022-07-24 17:44:00,,0831.4,4.99,0.00,30.8,28.0,00.0,39.3,32.0,34.5,-002.0,0015.47,0010.60,0009.96
2022-07-24 17:45:00,,0831.4,5.01,0.00,30.8,28.1,00.0,39.3,32.0,34.9,-002.0,0015.96,0010.40,0009.75
2022-07-24 17:46:00,,0831.4,4.99,0.00,30.9,28.3,00.0,39.3,32.1,33.9,-001.5,0015.34,0010.23,0009.59
2022-07-24 17:47:00,,0831.4,5.00,0.00,30.9,28.5,00.0,39.3,32.1,33.6,-001.4,0014.77,0010.10,0009.47
2022-07-24 17:48:00,,0831.3,5.00,0.00,31.0,28.6,00.0,39.3,32.2,33.5,-001.2,0014.62,0009.93,0009.32
2022-07-24 17:49:00,,0831.4,5.00,0.00,31.0,28.7,00.0,39.3,32.2,33.3,-000.9,0014.38,0009.75,0009.14
2022-07-24 17:50:00,,0831.4,4.99,0.00,31.0,28.8,00.0,39.4,32.2,33.6,-000.6,0014.29,0009.62,0009.00
2022-07-24 17:51:00,,0831.4,5.01,0.00,31.0,28.4,00.0,39.3,32.2,33.9,-000.7,0013.86,0009.57,0008.92
2022-07-24 17:52:00,,0831.4,4.99,0.00,31.0,27.8,00.0,39.3,32.1,33.7,-001.0,0013.85,0009.55,0008.87
2022-07-24 17:53:00,,0831.5,5.01,0.00,30.9,27.5,00.0,39.2,32.1,33.8,-001.0,0013.77,0009.54,0008.85
2022-07-24 17:54:00,,0831.4,5.00,0.00,30.8,27.5,00.0,39.2,31.9,34.0,-000.9,0013.68,0009.56,0008.89
2022-07-24 17:55:00,,0831.4,5.00,0.00,30.7,27.6,00.0,39.2,31.9,34.7,-000.7,0013.67,0009.62,0008.94
2022-07-24 17:56:00,,0831.4,5.00,0.00,30.7,27.8,00.0,39.2,31.9,34.6,-000.6,0013.06,0009.67,0009.01
2022-07-24 17:57:00,,0831.4,5.01,0.00,30.7,28.0,00.0,39.2,32.0,35.6,-000.7,0013.00,0009.60,0008.96
2022-07-24 17:58:00,,0831.4,4.99,0.00,30.9,28.2,00.0,39.2,32.1,34.4,-000.8,0012.99,0009.57,0008.91
2022-07-24 17:59:00,,0831.4,5.00,0.00,31.0,28.3,00.0,39.2,32.1,34.0,-000.8,0013.03,0009.58,0008.90
